COSMOS 2251 DEB, 38481

Orbit data source: Space-Track

COSMOS 2251 DEB, 38481 is space debris in LEO originally from a launch on Wed, 16 Jun 1993 UTC launched from the Plesetsk Missile And Space Complex (PKMTR). The debris from Iridium 33, an American commercial communications satellite, has been tracked extensively since its accidental collision with the defunct Russian satellite Cosmos 2251 in 2009. This event, occurring at high speed in low Earth orbit (LEO), generated thousands of pieces of space debris, significantly increasing the risk of further collisions. The Iridium 33 debris cloud has impacted space traffic management and orbital debris mitigation strategies, making it a subject of ongoing study in space situational awareness.

Loading next visibility...
Identifier
38481, 1993-036BTR
Orbit
LEO
Country
Flag of CISCIS
Related business
Manufacturer
Unknown
Mission
Spacecraft
Bus & Motor
Unknown
Mass
Unknown
Launch date (UTC)
1993-06-16 (32 years ago)
Launch vehicle
Unknown
Launch site
Plesetsk Missile And Space Complex (PKMTR)
Object type
Payload
Rocket body
Debris
Shape & HBR
Unknown shape, 0.1 m
Radar Cross Section
Small (<0.1 m²)

Expand to show TLE details & history
Last TLE update: 2 days ago

TLE from 2 days ago
0 COSMOS 2251 DEB
1 38481U 93036BTR 25300.16281371  .00002168  00000-0  13114-2 0  9993
2 38481  73.9308  88.0329 0232004  38.1351 323.5941 13.94573767584116
Epoch: 2025-10-27T03:54Z
TLE epoch observation values (Epoch: 2025-10-27T03:54:27.104Z)
Latitude
-0.00003°
Longitude
-6.34865°
Altitude
780.464 km
Speed
7.532 km/s
True Right ascension
05h 52m 07s
True Declination
0° 00' 00"
Sunlit
Object was in full shadow at epoch
Visualization orbit readout
Latitude
Unknown
Longitude
Unknown
Altitude
Unknown
Speed
Unknown
Apparent Right ascension
Unknown
Apparent Declination
Unknown
Sunlit
N/A
Visualization observer readout
Local Sidereal Time
17:29:06
Azimuth
Unknown
Elevation
Unknown
Doppler factor
Unknown
Orbital elements
Apogee altitude
1,079.418 km
Perigee altitude
741.228 km
Semi-major axis
7,288.46 km
Eccentricity
0.0232
Inclination
73.9308°
RAAN
88.0329°
Arg. of periapsis
38.1351°
True anomaly
321.97878°
Mean anomaly
323.5941°
Eccentric anomaly
322.79024°
Mean motion
3.4881 °/min
Orbital period
103.21 mins
BSTAR
0.0013114

Documentation

Showing up to 5 results
|